Tracking 31027 objects as of 19-Jul-2025
HD Live streaming from Space Station
objects crossing your sky now

STARLINK-2526

Track STARLINK-2526 now!
10-day predictions
STARLINK-2526 is classified as:


NORAD ID: 48378
Int'l Code: 2021-038AB
Perigee: 553.5 km
Apogee: 555.3 km
Inclination: 53.1 °
Period: 95.6 minutes
Semi major axis: 6925 km
RCS: Unknown
Launch date: May 4, 2021
Source: United States (US)
Launch site: AIR FORCE EASTERN TEST RANGE (AFETR)
Your satellite tracking list
TITAN 3C TRANSTAGE DEB
Track 1 satellite(s)




NASA's NSSDC Master Catalog

Two Line Element Set (TLE):
1 48378U 21038AB  25199.73029282  .00001528  00000-0  12144-3 0  9994
2 48378  53.0561 321.9037 0001321  90.4245 269.6895 15.06393925232496
Source of the keplerian elements: AFSPC